This is the latest recevied weather packets stored in our database for station/object YT6PT-8. If no packets are shown the sender has not sent any weather packets the latest 10 day(s).
| Time | Temp. | Humidity | Pressure | Rain* | Wind** | Luminosity | Snow |
|---|---|---|---|---|---|---|---|
| 1787994350 | 28.89° C | 45% | 1009 hPa | 0 mm | 3.13 m/s, 22° | - | - |
| 1787994044 | 28.89° C | 45% | 1009 hPa | 0 mm | 3.13 m/s, 22° | - | - |
| 1787993750 | 28.89° C | 45% | 1009 hPa | 0 mm | 3.13 m/s, 22° | - | - |
| 1787993451 | 28.89° C | 45% | 1009 hPa | 0 mm | 3.13 m/s, 22° | - | - |
| 1787993150 | 28.89° C | 45% | 1009 hPa | 0 mm | 3.13 m/s, 22° | - | - |
| 1787992851 | 28.89° C | 45% | 1009 hPa | 0 mm | 3.13 m/s, 22° | - | - |
| 1787992553 | 28.89° C | 44% | 1009 hPa | 0 mm | 2.24 m/s, 338° | - | - |
| 1787992253 | 28.89° C | 44% | 1009 hPa | 0 mm | 2.24 m/s, 338° | - | - |
| 1787991950 | 29.44° C | 42% | 1009 hPa | 0 mm | 1.79 m/s, 338° | - | - |
| 1787991654 | 29.44° C | 42% | 1009 hPa | 0 mm | 1.79 m/s, 338° | - | - |
| 1787991333 | 29.44° C | 41% | 1008.9 hPa | 0 mm | 1.34 m/s, 0° | - | - |
| 1787991032 | 29.44° C | 41% | 1008.9 hPa | 0 mm | 1.34 m/s, 0° | - | - |
| 1787990731 | 29.44° C | 41% | 1008.7 hPa | 0 mm | 2.68 m/s, 338° | - | - |
| 1787990132 | 28.89° C | 41% | 1008.7 hPa | 0 mm | 1.34 m/s, 315° | - | - |
| 1787989833 | 28.89° C | 41% | 1008.7 hPa | 0 mm | 1.34 m/s, 315° | - | - |
| 1787989533 | 28.89° C | 42% | 1008.5 hPa | 0 mm | 2.24 m/s, 315° | - | - |
| 1787989233 | 28.89° C | 42% | 1008.5 hPa | 0 mm | 2.24 m/s, 315° | - | - |
| 1787988638 | 28.89° C | 42% | 1008.4 hPa | 0 mm | 2.68 m/s, 338° | - | - |
| 1787988333 | 28.89° C | 42% | 1008.4 hPa | 0 mm | 1.79 m/s, 338° | - | - |
| 1787988033 | 28.89° C | 42% | 1008.4 hPa | 0 mm | 1.79 m/s, 338° | - | - |
| 1787987732 | 28.33° C | 43% | 1008.3 hPa | 0 mm | 2.24 m/s, 0° | - | - |
| 1787987452 | 28.33° C | 43% | 1008.3 hPa | 0 mm | 2.24 m/s, 0° | - | - |
| 1787987149 | 28.33° C | 44% | 1008.3 hPa | 0 mm | 1.79 m/s, 0° | - | - |
| 1787986833 | 28.33° C | 44% | 1008.3 hPa | 0 mm | 1.79 m/s, 0° | - | - |
| 1787986548 | 28.33° C | 45% | 1008.3 hPa | 0 mm | 2.24 m/s, 0° | - | - |
* Rain latest hour (hover to see other rain measurements)
** Current wind speed in m/s (hover to see current wind gust speed)